Theta_e
337 337 337 339 339 345 341 334 329 329 330 332 334 338 343 346 346 346 345 348 346 347 350 347 351 351 352 350 352 352 351 353 355 353 355 354 354 352 352 356 355 354 354 354 355 356 357 359 358 359 359 359 361 360 360 361 360 362 361 360 357 357 354
335 336 336 339 340 340 346 346 343 338 336 331 334 336 344 346 346 346 345 348 347 347 351 348 351 351 353 351 352 351 350 351 356 357 356 356 358 355 355 357 356 355 356 357 356 356 358 358 358 359 359 361 362 360 360 362 361 361 362 360 358 355 354
337 340 339 339 337 339 343 342 343 346 345 340 333 334 343 345 347 346 346 348 348 347 352 350 351 351 353 352 351 351 351 351 355 356 354 355 357 357 357 358 357 357 357 359 358 356 359 358 357 358 360 360 361 361 361 362 362 363 362 361 359 358 355
334 337 340 341 340 342 342 343 343 347 350 349 337 335 340 345 348 348 348 348 349 348 350 352 351 351 352 352 352 351 350 351 354 355 355 356 357 357 357 357 357 357 357 357 359 359 359 358 357 357 365 359 360 361 363 363 362 362 362 361 359 358 357
334 336 337 339 341 343 342 339 340 342 347 348 350 350 345 343 347 349 349 350 351 349 350 354 354 353 353 353 354 353 352 351 353 354 354 356 357 356 356 355 356 357 357 357 358 358 358 357 357 357 360 359 359 360 362 363 362 362 361 362 359 358 358
333 333 335 335 336 338 338 341 346 347 348 346 346 350 348 348 346 347 349 350 351 351 351 354 355 354 353 353 353 354 353 353 353 354 353 353 355 354 354 355 355 356 356 356 358 357 357 356 357 356 358 358 358 360 361 362 362 361 360 361 360 358 359
333 334 334 334 335 336 337 339 345 349 349 347 348 349 349 347 346 346 350 350 352 351 350 352 355 356 355 355 354 354 353 353 353 353 353 352 352 352 352 353 355 354 355 354 355 356 355 355 357 356 357 357 357 360 361 360 360 361 360 360 360 358 359
329 331 334 332 335 336 335 336 338 339 345 348 347 349 349 348 347 345 345 348 349 350 351 352 352 355 355 356 355 353 353 353 354 354 353 352 351 351 350 350 352 352 352 352 352 353 355 354 356 358 357 357 356 358 360 360 360 361 360 360 360 360 361
328 329 330 331 331 332 335 335 336 337 338 341 344 346 348 348 348 347 347 347 350 350 349 349 347 346 345 348 352 352 353 353 353 353 353 352 351 351 351 350 350 351 350 351 351 352 354 354 354 356 357 356 356 356 357 358 359 360 360 359 360 359 360
325 326 327 328 330 332 333 334 335 335 336 337 340 343 345 345 345 344 344 348 346 346 351 351 350 348 346 346 345 345 349 351 352 352 352 352 351 350 351 351 350 351 349 349 350 350 352 354 354 354 355 355 354 354 354 356 357 358 359 359 359 360 359
324 325 325 326 327 329 332 332 332 333 334 335 338 340 341 343 344 346 347 349 348 347 348 347 348 348 349 350 348 346 344 346 352 352 352 352 351 350 349 349 350 350 350 348 348 349 349 352 353 353 354 354 353 353 353 353 355 356 357 358 359 360 359
323 324 324 325 326 327 329 332 333 334 334 335 336 338 339 341 344 345 345 346 348 348 350 350 350 348 347 351 350 348 347 343 343 349 352 352 351 349 348 346 344 347 349 349 347 347 349 350 351 353 353 353 353 353 353 353 354 355 355 356 358 359 359
323 323 323 324 325 326 327 329 332 335 336 336 337 337 339 340 340 342 343 345 347 349 350 351 351 351 351 352 350 349 347 346 345 347 351 351 349 349 349 347 347 345 343 347 348 346 346 348 349 352 352 353 354 353 354 353 354 354 354 355 356 357 357
325 322 322 323 324 325 325 327 330 333 335 336 336 337 338 340 341 341 342 343 346 348 348 349 350 352 351 350 349 348 347 346 347 349 351 351 353 351 350 349 346 344 346 348 345 345 345 346 348 350 351 352 353 353 354 354 353 354 354 353 354 355 356
320 320 320 321 322 324 324 325 327 330 333 335 337 336 337 338 340 341 342 344 345 348 350 350 349 349 350 350 350 351 351 350 351 351 353 354 350 349 348 348 347 346 346 346 346 347 346 346 343 347 349 350 351 351 352 353 353 353 354 353 352 353 353
319 319 319 320 320 322 324 325 326 327 329 332 335 335 337 337 338 340 341 342 344 345 348 350 349 348 348 349 351 352 351 350 350 349 348 349 349 348 348 347 348 349 347 346 345 345 346 344 344 343 345 348 350 350 351 351 353 356 348 351 354 353 353
317 317 318 319 320 320 322 322 322 322 324 326 328 331 335 337 338 340 340 341 342 343 345 345 344 344 344 344 346 347 348 348 349 349 348 348 347 347 349 348 350 348 347 348 348 344 346 345 344 344 343 344 348 349 350 351 353 347 336 337 342 354 352
316 316 317 317 318 318 320 321 321 322 323 323 325 328 330 333 337 337 337 338 339 342 344 343 342 342 342 343 344 346 346 348 348 347 348 349 347 347 347 349 348 346 346 348 349 349 350 345 344 344 346 345 344 346 349 350 350 337 334 335 334 344 353
314 314 315 316 316 317 318 320 321 322 323 324 324 326 328 332 332 331 333 333 335 338 339 341 342 341 341 342 343 343 344 345 346 346 346 347 350 352 349 347 348 350 350 350 351 350 347 346 346 343 345 348 344 343 346 349 343 333 331 332 332 332 345
313 313 314 315 316 315 317 319 319 320 322 325 326 327 327 330 330 331 333 333 332 332 332 334 336 339 340 341 341 342 342 343 344 344 344 345 346 349 349 347 348 352 354 354 351 348 348 349 349 347 344 347 349 348 349 346 344 333 328 327 328 329 334
312 312 312 312 313 315 316 317 318 319 320 323 327 327 327 327 328 329 329 329 328 329 329 330 330 331 333 338 341 342 341 341 343 343 344 345 346 347 347 347 347 349 351 352 351 349 347 348 348 350 351 351 351 349 350 351 341 330 327 325 324 326 330
312 312 312 312 313 314 315 317 317 318 320 325 325 325 326 326 327 327 327 328 327 328 328 328 328 329 330 330 332 337 342 342 340 341 343 344 345 344 345 345 345 345 346 348 348 350 352 351 352 352 352 352 351 350 349 351 336 330 327 322 321 324 335
313 313 313 314 315 315 316 318 318 320 321 320 321 322 322 324 326 326 325 326 326 326 327 327 327 328 329 330 330 332 336 342 341 342 342 343 341 340 341 341 340 340 342 338 339 340 344 347 349 351 352 353 353 351 349 350 342 329 327 324 320 324 333
314 314 314 314 316 317 317 318 319 321 320 320 320 321 322 324 324 324 325 325 326 326 326 326 326 328 329 329 330 330 329 333 335 339 343 342 341 340 340 341 341 339 339 337 336 336 338 344 346 347 348 349 350 353 353 353 346 329 325 324 322 331 334
311 313 315 315 315 315 316 318 319 319 319 319 319 320 322 323 324 324 324 326 326 326 325 325 325 326 327 328 329 329 329 329 331 332 338 342 343 343 341 339 340 340 339 339 337 336 338 343 342 342 344 346 348 352 351 352 350 330 322 321 320 328 338
313 314 314 315 315 315 316 317 316 316 316 316 317 320 322 323 323 326 324 323 322 323 326 325 326 326 326 327 328 328 329 329 331 331 333 339 341 341 342 343 344 341 340 338 335 335 337 340 342 342 343 345 346 348 350 350 351 347 327 319 315 318 341
314 314 313 314 316 320 313 313 314 314 315 316 317 319 321 322 321 320 323 320 318 320 322 324 327 327 326 325 325 327 328 328 328 328 328 330 338 342 344 343 341 342 340 339 336 335 338 342 344 344 344 345 345 347 347 352 351 346 327 321 319 315 322
312 313 316 319 320 316 312 313 313 314 315 316 318 319 318 318 320 320 320 317 317 319 322 323 324 325 326 324 324 326 326 326 327 329 329 332 338 329 329 332 335 339 341 339 338 339 342 343 343 342 341 340 340 342 341 345 347 345 334 325 319 317 313
310 310 310 310 312 316 313 311 312 313 313 315 316 317 317 318 319 319 318 315 317 321 323 325 323 324 326 326 325 327 324 325 326 326 328 332 332 329 329 330 332 333 338 340 341 341 340 340 340 338 336 336 337 338 338 339 343 339 342 331 322 318 319
310 310 310 312 313 313 315 311 312 312 313 314 315 315 315 315 316 319 318 314 318 321 322 323 322 323 325 328 326 325 324 324 326 325 326 328 328 329 327 327 329 332 333 332 331 329 329 332 335 334 333 333 334 335 337 338 339 341 339 338 325 317 312
308 308 309 309 311 314 311 310 310 311 312 313 314 314 315 314 314 317 315 315 319 320 319 321 322 324 323 322 323 324 322 321 321 324 325 325 325 326 326 327 328 328 329 328 326 326 326 328 331 330 330 330 330 332 334 337 338 338 339 337 334 320 314
308 308 309 309 309 311 310 311 311 312 312 312 314 314 316 315 314 315 315 317 318 318 318 321 322 324 323 322 322 323 322 320 320 324 323 323 324 325 325 325 326 326 325 324 324 324 325 327 328 328 327 326 327 328 330 333 335 335 337 345 340 331 321
306 307 307 308 311 311 310 311 311 313 312 312 312 313 314 314 315 316 318 319 319 318 317 320 322 323 322 319 320 321 321 318 322 321 322 321 320 321 323 324 323 323 325 323 321 322 325 325 327 326 325 325 325 326 328 329 330 331 334 338 333 330 329
305 306 307 308 310 311 310 310 310 311 311 311 311 312 313 314 314 316 318 320 320 320 319 320 321 321 318 319 320 321 322 322 329 324 319 319 320 318 319 321 323 321 321 321 321 322 322 322 322 322 323 323 323 324 324 325 326 328 331 331 326 324 324
305 305 306 307 309 311 309 311 311 311 312 311 311 311 312 313 315 317 317 318 318 320 321 323 324 322 319 320 319 320 325 323 321 321 319 318 318 319 318 320 321 321 320 321 323 323 319 318 317 322 319 320 321 321 321 323 323 327 320 318 308 312 315
305 306 306 307 310 311 313 313 311 311 311 309 310 311 312 314 315 315 316 316 316 317 319 321 322 320 319 321 321 323 322 322 319 319 320 319 317 319 320 327 316 315 318 319 324 317 308 309 315 317 315 315 318 321 321 322 324 317 305 299 298 298 298
304 304 304 307 308 309 309 310 313 312 311 309 311 310 312 315 315 315 315 314 314 314 315 317 320 319 319 322 321 323 324 320 319 320 318 318 317 318 318 318 318 309 308 311 315 310 303 301 302 304 307 315 315 318 315 314 311 304 298 297 297 296 296
305 304 306 309 309 310 310 310 310 310 310 308 309 309 311 313 313 313 313 313 312 312 313 313 315 315 316 319 320 322 323 319 320 320 318 318 316 318 317 315 315 315 309 307 308 307 303 302 302 302 302 304 307 313 317 314 309 299 298 297 296 296 296
Wind_Speed
9 8 6 4 3 3 3 9 10 11 12 13 13 14 14 14 13 13 12 13 14 11 10 10 10 9 9 8 7 6 6 5 6 7 6 6 6 7 7 6 7 7 6 7 6 7 6 5 5 5 5 5 5 5 5 4 4 4 3 3 3 3 4
8 7 7 6 5 2 1 3 2 4 7 11 12 13 13 14 13 12 13 13 14 14 12 11 10 9 10 9 7 7 6 6 6 6 6 6 5 7 8 7 7 7 7 7 6 6 5 6 6 5 6 5 5 5 5 4 4 4 3 3 4 4 4
4 4 6 8 9 5 8 8 7 4 2 3 11 11 13 13 14 14 13 12 12 12 10 11 10 10 9 8 7 8 7 6 5 7 7 7 7 8 7 7 7 7 7 6 6 6 6 6 6 6 6 6 5 4 4 4 4 4 4 4 3 5 4
3 4 5 8 10 10 8 4 6 2 1 2 4 10 11 13 13 13 13 14 13 11 11 10 10 9 8 8 8 8 8 7 6 6 7 7 8 7 7 6 6 6 7 7 7 7 6 7 7 6 7 6 6 5 4 5 4 4 4 4 4 4 4
7 9 9 9 8 6 5 6 6 2 1 3 2 1 7 9 10 10 10 12 13 14 13 13 11 9 8 8 7 7 8 8 6 5 6 6 7 7 7 8 7 7 8 7 7 7 6 7 7 7 7 6 6 5 5 5 5 4 4 4 5 4 5
6 8 8 7 6 6 6 6 2 2 3 4 5 1 4 5 8 10 10 10 10 11 11 11 11 11 10 9 8 6 5 5 5 5 5 6 7 7 8 8 8 8 7 8 7 7 7 7 7 7 8 7 7 6 6 6 6 5 5 4 5 5 5
6 9 9 9 6 6 8 7 4 1 0 3 8 8 7 8 9 4 5 6 4 1 7 11 11 10 10 9 9 7 7 7 5 6 5 5 6 7 7 7 8 8 8 6 7 7 8 8 8 8 8 8 7 7 6 6 6 5 5 5 5 5 5
9 9 9 9 9 7 7 7 7 7 6 7 7 6 7 4 7 9 8 8 10 8 3 2 1 2 4 6 8 8 8 7 5 6 5 6 6 6 6 6 7 8 7 8 7 7 8 8 8 8 8 8 8 7 7 7 7 6 5 6 6 6 5
9 10 9 9 9 9 8 7 7 7 7 7 7 5 6 6 7 8 8 7 6 4 4 2 6 6 5 5 2 2 6 6 6 5 6 7 6 7 7 7 6 7 8 8 7 7 8 8 8 8 8 8 8 8 7 7 7 6 6 7 7 7 6
8 9 9 9 8 8 7 7 6 8 8 8 7 8 9 9 10 9 9 9 10 10 5 5 7 7 7 4 6 8 7 3 6 7 7 7 7 8 8 8 7 7 8 8 7 8 7 8 8 8 8 8 8 8 7 7 7 7 7 8 8 7 7
7 7 8 10 9 8 8 9 11 10 9 8 7 8 9 10 10 8 6 6 7 7 9 7 6 6 3 4 4 4 6 9 7 8 9 10 8 9 8 7 8 7 8 8 7 7 7 6 7 9 9 9 9 8 8 8 8 8 8 7 7 8 8
8 8 9 10 10 10 9 7 9 9 6 9 11 8 8 8 10 11 11 10 8 5 5 7 9 10 9 5 4 2 6 7 8 10 9 8 8 7 4 3 4 7 7 8 8 7 7 8 7 8 10 10 10 10 9 8 8 9 9 9 8 8 8
7 7 7 10 10 9 8 9 9 6 8 9 9 9 8 8 9 8 10 11 8 5 4 3 4 6 8 8 9 7 5 7 8 5 7 3 6 5 3 2 1 2 4 5 7 8 8 8 9 8 10 10 10 10 10 9 9 9 9 9 9 10 9
11 10 8 7 9 11 11 8 7 8 9 8 8 9 7 7 9 8 8 9 8 8 8 5 3 6 8 8 8 8 7 6 6 7 6 3 2 3 4 4 3 3 1 2 4 6 8 9 10 10 9 10 10 10 9 9 9 9 9 9 10 10 10
10 10 9 9 9 10 11 10 8 8 8 7 8 8 7 6 7 8 9 6 5 4 7 7 7 6 7 8 9 9 8 6 5 5 3 5 4 3 3 3 3 3 3 3 3 4 3 2 4 5 7 8 9 9 8 8 8 8 8 9 9 9 9
12 11 11 11 10 8 8 9 8 8 8 7 7 8 8 7 7 7 8 8 6 6 5 5 7 7 6 5 4 5 4 2 4 4 3 3 4 5 4 3 2 2 2 3 5 5 4 4 4 5 7 7 7 7 8 8 7 9 14 12 9 8 8
12 11 10 11 10 11 8 8 8 7 7 7 8 7 7 7 7 7 8 7 7 6 4 6 7 6 6 6 4 4 5 2 3 3 4 3 1 2 2 3 1 0 1 3 4 2 3 4 4 4 4 7 8 8 8 8 8 14 14 15 16 10 8
13 12 11 9 9 10 9 7 8 10 11 12 9 7 7 6 7 7 8 7 7 5 3 5 5 6 6 5 5 5 5 3 1 1 1 2 2 2 2 1 1 2 0 2 2 3 4 3 3 4 4 4 4 6 8 8 10 14 15 16 16 14 10
11 12 10 8 8 8 8 8 8 9 11 11 11 8 8 8 8 8 7 7 4 2 3 4 5 6 6 5 5 6 6 4 2 3 3 3 4 4 4 4 4 1 1 0 0 2 4 3 3 3 3 3 3 4 6 7 11 12 14 15 17 17 14
10 10 9 7 6 7 6 7 7 7 8 9 10 10 9 7 9 8 7 6 3 4 4 4 4 4 5 5 4 4 4 3 3 3 4 4 4 5 4 2 3 3 2 2 1 2 2 3 4 4 3 3 3 3 3 4 9 13 13 14 15 15 12
10 10 7 6 7 7 7 8 9 10 9 8 8 8 9 7 7 7 7 5 5 5 6 6 6 5 4 3 2 2 2 2 2 2 2 3 4 5 5 4 5 5 4 4 4 2 2 3 4 4 3 2 2 3 5 5 6 8 13 14 15 15 11
9 10 9 6 7 7 7 8 9 9 8 7 8 9 9 8 6 6 6 5 6 5 6 6 7 7 6 6 5 3 1 2 2 1 2 3 4 6 6 4 5 5 5 5 5 5 4 3 2 3 4 2 2 2 3 5 9 6 5 7 11 10 6
10 9 10 7 8 9 7 7 9 8 8 8 8 8 7 7 7 5 4 5 5 6 6 7 7 7 7 6 6 6 4 2 1 1 2 2 3 4 3 2 2 2 2 4 4 5 5 5 4 4 4 4 3 3 2 3 7 8 6 3 1 4 4
9 8 8 10 11 11 10 9 9 9 9 9 8 6 5 6 6 6 5 4 3 4 5 6 6 6 6 6 6 5 5 5 4 3 1 2 2 2 0 0 1 2 2 2 2 3 3 4 4 4 4 4 5 4 4 3 4 8 10 9 5 7 5
9 11 12 12 12 12 10 9 9 9 9 8 8 6 5 6 6 6 6 4 3 3 4 4 4 5 5 5 5 5 5 6 5 5 2 0 0 0 1 1 1 1 1 1 2 2 2 2 3 4 4 4 4 8 6 4 3 8 11 11 11 8 5
13 13 12 11 11 10 9 8 10 11 10 9 7 6 6 5 6 6 5 4 4 5 4 3 2 3 3 3 3 4 6 5 6 5 4 2 2 2 2 2 2 2 2 2 2 4 4 3 3 5 5 5 5 5 5 5 5 1 1 7 10 10 5
12 12 12 11 10 10 9 8 8 8 7 5 6 6 6 6 6 6 4 4 5 5 4 4 5 3 3 4 4 5 5 5 5 6 5 4 3 2 3 3 4 4 3 3 3 3 4 4 4 4 4 5 5 5 5 5 6 6 11 10 4 3 4
13 13 11 10 11 9 8 7 7 6 7 6 6 5 5 5 5 5 5 6 7 6 4 4 5 5 3 3 4 4 4 5 6 5 5 4 4 5 6 5 4 4 4 2 2 4 4 4 4 4 4 4 5 5 5 7 11 8 9 10 6 3 8
12 11 10 10 9 8 8 8 7 8 7 7 7 7 7 6 5 4 4 7 6 6 5 5 5 6 4 3 3 4 5 5 6 7 5 5 5 6 6 6 6 7 7 7 6 7 6 6 5 4 5 5 5 5 6 7 8 11 9 11 11 10 4
11 10 10 9 8 7 7 7 6 6 6 6 5 6 6 7 6 5 6 7 7 5 5 5 5 5 6 5 4 2 4 4 5 6 5 6 7 8 8 8 7 6 7 7 7 6 7 7 6 6 6 7 7 7 7 7 8 9 11 9 10 12 13
10 10 9 9 7 5 5 6 6 6 7 6 6 6 6 5 6 6 7 7 6 6 6 5 5 4 4 5 5 3 3 4 4 5 5 5 7 7 7 8 8 8 7 7 7 7 7 7 7 7 6 7 7 8 8 8 8 8 10 11 10 11 13
9 8 8 7 6 5 5 6 6 7 7 7 7 6 5 5 5 6 6 6 6 6 6 4 4 4 4 3 4 5 3 3 4 4 4 5 5 5 5 6 6 7 7 7 7 7 7 7 7 7 7 6 7 7 7 7 7 8 9 8 8 8 10
7 7 8 7 5 5 6 5 6 7 7 8 6 6 6 6 6 5 6 7 7 6 5 4 3 4 4 5 5 4 3 1 2 3 4 4 4 5 5 6 6 6 6 6 6 6 6 7 7 7 7 7 7 8 7 7 7 7 7 6 8 8 9
7 6 6 6 6 7 7 7 7 7 7 7 6 6 7 7 7 7 7 7 8 7 5 4 3 3 4 6 5 4 3 2 6 5 3 4 4 6 6 6 5 6 6 6 6 6 6 6 7 6 6 7 7 8 8 7 6 7 7 6 7 7 7
7 6 5 4 4 6 7 6 7 6 5 4 4 5 6 7 7 8 8 8 8 8 7 6 5 4 5 5 5 6 3 3 3 2 3 3 3 4 2 3 5 5 5 5 3 5 4 6 6 5 5 5 6 6 8 8 7 6 4 6 5 5 6
6 6 5 4 4 6 7 6 6 5 5 3 3 4 4 4 6 6 7 7 8 8 8 8 6 6 6 5 5 5 5 5 5 4 4 4 4 4 4 6 5 4 4 4 8 8 4 2 4 6 4 5 7 4 5 8 8 12 12 7 6 8 6
8 5 4 5 7 7 7 5 5 6 4 3 4 4 3 4 7 6 7 7 8 8 7 7 7 6 6 6 5 6 4 5 5 5 5 5 4 3 3 4 7 7 7 5 8 9 10 10 11 12 9 1 4 10 10 12 15 12 6 7 9 8 9
7 6 5 6 7 6 6 5 4 5 4 3 4 4 3 6 7 6 7 7 7 7 7 7 6 6 6 6 4 5 5 4 4 4 5 5 4 4 4 5 5 7 7 8 8 10 10 11 12 13 14 14 6 3 8 11 4 9 13 12 10 10 10
Wind_Direction
169 174 165 135 98 47 161 173 175 170 170 172 171 171 171 171 172 173 175 177 177 170 177 175 178 178 181 185 189 187 186 178 177 175 177 179 172 169 170 173 171 180 177 180 187 182 194 189 183 193 196 197 201 207 207 204 202 212 203 204 194 195 215
168 172 164 121 124 244 302 46 111 147 175 175 174 170 173 171 171 174 177 179 179 175 177 178 179 181 182 186 189 191 194 188 181 180 175 179 176 174 173 173 174 179 181 185 183 190 182 194 186 190 199 200 203 199 202 201 199 206 196 189 184 204 207
104 131 144 155 172 174 53 36 2 358 50 221 175 171 174 173 173 176 176 178 179 177 172 178 183 182 181 182 184 199 200 187 188 184 179 181 183 181 179 174 177 177 186 181 181 188 187 190 192 191 195 198 200 197 201 201 198 196 196 182 186 193 201
48 61 87 71 57 61 103 157 227 277 103 57 207 172 175 174 175 177 174 176 177 174 175 180 180 183 184 181 187 196 202 201 192 189 186 183 185 182 177 180 181 181 185 192 189 187 191 188 190 192 194 194 198 198 196 201 199 195 195 183 196 199 204
57 72 71 72 98 124 150 189 215 226 270 105 55 69 151 168 173 174 177 178 175 176 180 180 181 182 187 185 189 192 201 203 200 193 188 189 186 184 183 185 186 190 194 197 193 191 187 188 191 190 195 192 197 195 197 199 202 198 194 190 202 206 216
54 77 82 71 46 32 38 37 348 209 201 158 150 125 71 126 171 177 178 178 181 182 180 177 179 180 183 190 190 190 195 209 209 200 193 190 187 189 194 193 188 194 194 199 194 197 188 187 190 191 192 194 195 197 195 195 204 195 198 196 204 206 213
69 79 91 94 68 42 31 31 23 338 300 47 41 34 20 53 59 69 86 76 34 241 194 180 183 180 186 182 188 184 191 200 204 211 204 198 196 191 199 199 197 196 200 191 197 194 190 189 193 190 192 192 193 196 195 196 199 199 195 199 211 214 212
60 70 75 87 91 72 47 33 20 23 50 101 118 131 130 116 122 103 102 127 155 147 174 175 120 163 174 186 181 183 191 197 200 207 208 207 207 208 201 204 202 201 199 195 200 188 189 188 189 190 190 191 193 197 198 196 195 196 191 202 211 219 214
69 71 75 75 77 81 73 52 32 35 50 66 85 104 116 104 81 86 86 69 32 14 16 24 138 117 85 46 10 205 188 190 203 205 211 209 213 216 218 212 208 205 200 204 201 198 192 191 187 186 188 191 191 193 198 197 200 198 194 201 206 212 217
72 74 74 73 70 70 71 67 54 42 35 44 57 85 95 99 106 117 129 122 102 81 62 14 13 28 32 38 77 41 352 246 202 212 215 219 215 216 218 218 214 207 206 206 203 198 205 195 191 185 185 188 189 189 190 194 200 202 201 202 204 211 216
77 76 76 71 67 66 65 59 53 45 42 36 33 66 78 85 92 95 79 76 97 112 118 107 87 88 75 33 37 103 87 3 296 217 217 220 220 219 216 217 215 208 208 203 207 205 195 202 194 189 190 194 195 198 196 192 194 200 206 209 207 212 216
81 75 75 76 74 63 58 61 70 52 50 54 56 42 42 61 83 91 84 64 49 75 121 139 148 148 145 140 111 73 84 85 12 311 230 219 227 224 218 217 222 221 214 201 203 207 202 197 199 194 195 199 199 198 201 199 195 197 202 205 207 210 216
80 74 72 78 75 75 72 66 68 80 59 64 64 63 64 48 50 65 83 82 76 45 35 72 97 125 132 134 126 113 115 132 150 240 289 218 179 170 160 141 136 148 204 219 212 197 203 207 204 205 198 201 200 199 200 201 200 200 202 204 205 206 211
84 75 70 75 81 78 73 70 70 72 76 70 71 71 61 68 86 77 74 97 117 118 107 85 94 116 119 124 124 130 149 192 190 188 189 224 240 187 169 172 178 176 158 146 201 222 209 203 204 207 207 206 204 205 201 200 201 202 203 204 203 204 209
89 81 72 72 78 76 74 73 67 69 67 76 78 74 71 61 55 79 85 71 60 83 106 124 122 111 109 120 133 150 162 169 182 207 209 176 174 198 198 184 189 200 176 144 148 165 175 180 204 214 221 218 212 210 207 203 206 203 202 205 208 204 207
95 83 71 63 65 73 76 72 71 66 66 56 63 78 74 71 71 57 77 81 67 58 58 91 98 104 107 103 107 113 110 137 171 187 181 173 200 194 191 201 207 228 226 190 175 174 177 167 165 178 198 219 229 224 214 212 211 213 207 202 201 206 209
91 82 72 61 53 58 68 77 71 68 66 62 61 68 85 95 89 88 80 71 64 49 44 80 86 84 79 75 61 65 82 53 290 190 162 163 145 284 239 209 216 25 338 329 316 278 212 172 171 179 181 195 209 220 223 221 217 215 211 211 210 204 206
93 85 72 61 54 52 56 71 72 64 67 72 58 63 77 71 82 77 71 69 68 65 52 63 70 78 81 74 66 58 56 68 296 306 105 139 185 224 289 326 143 149 222 309 323 319 333 304 240 206 204 195 200 212 221 227 227 217 213 215 217 216 214
91 91 85 71 56 52 50 59 67 64 63 65 70 60 70 81 82 76 73 67 49 65 69 75 82 81 69 59 66 64 56 44 11 7 22 34 51 63 37 338 311 325 127 199 273 352 335 310 308 298 287 259 219 223 220 223 230 227 222 220 219 220 219
99 94 85 69 58 54 52 62 62 59 62 70 67 68 73 79 87 84 70 70 68 59 55 62 51 66 78 76 65 65 72 59 40 23 11 11 44 56 61 354 334 347 28 34 26 349 322 328 324 313 289 269 274 277 277 243 228 215 218 224 228 227 219
110 104 96 80 61 54 59 65 62 57 54 57 65 66 68 68 74 83 79 71 61 50 50 49 53 45 43 41 42 76 89 93 79 41 24 34 23 47 49 11 352 3 359 7 5 358 336 318 326 326 328 330 319 315 307 303 314 252 220 214 216 225 220
121 115 106 98 84 71 73 70 70 67 61 53 55 54 54 52 49 73 73 58 51 43 42 40 41 33 33 37 24 10 14 82 82 55 44 51 59 52 44 26 5 6 4 12 13 11 1 344 328 324 324 319 330 331 308 309 319 315 308 245 234 223 205
124 118 117 106 83 79 79 77 73 71 64 54 48 45 39 37 44 47 58 60 40 35 33 34 33 26 22 26 16 16 3 356 34 51 59 67 66 63 60 34 342 336 4 18 10 12 8 360 356 348 345 341 343 339 313 290 296 290 286 283 181 162 204
115 108 94 88 79 74 72 69 69 62 66 60 47 37 30 37 46 50 46 50 56 48 33 33 28 16 20 15 7 7 8 9 8 352 351 38 73 94 100 264 270 314 348 59 21 14 5 351 355 357 351 351 357 346 329 305 251 250 269 274 205 185 184
99 91 85 82 84 80 71 69 71 68 58 51 43 18 30 38 45 51 48 35 27 41 57 48 24 19 19 2 360 3 5 5 11 7 339 357 356 280 298 292 296 289 316 344 9 350 346 4 0 351 352 355 349 352 351 322 280 223 228 239 234 214 209
100 93 89 88 81 83 81 70 63 56 52 48 33 21 27 34 43 47 53 47 43 33 12 360 19 18 12 4 3 5 7 10 7 6 2 311 288 296 261 259 288 294 305 328 358 353 353 357 1 354 348 345 352 346 334 319 309 32 132 241 252 236 245
96 93 89 84 83 79 74 69 73 71 65 54 42 34 27 30 38 30 27 39 35 17 355 340 327 333 11 358 13 4 7 7 8 356 354 357 336 303 321 328 314 305 309 325 358 10 358 6 7 3 356 352 353 354 353 360 359 337 332 329 340 327 320
91 83 80 82 78 74 72 70 64 61 49 35 35 34 32 36 35 22 20 23 11 346 328 349 357 340 324 22 7 10 9 5 356 360 358 350 10 11 9 356 352 340 315 333 8 10 5 3 12 13 9 357 352 353 346 346 346 340 343 342 338 138 169
93 91 85 76 69 67 74 67 61 58 55 42 40 32 20 23 26 21 23 16 347 336 344 354 356 2 343 321 10 6 2 8 1 359 3 359 9 25 17 7 13 18 21 25 27 22 15 9 9 11 3 353 350 349 347 344 337 340 336 337 339 337 337
96 92 87 83 82 79 75 75 74 69 58 52 48 44 39 38 29 18 16 351 323 330 348 356 358 359 4 349 327 357 344 6 2 6 8 13 26 31 22 17 20 32 35 33 35 25 14 10 6 9 5 356 345 344 345 339 335 332 334 338 356 4 18
101 100 96 92 89 88 87 91 87 75 60 51 49 46 41 35 27 11 2 330 329 338 340 342 357 351 9 351 339 316 328 354 23 11 20 19 33 34 22 21 18 20 14 21 22 22 15 3 1 3 356 352 346 336 334 333 332 330 331 338 8 27 20
88 89 88 84 79 69 68 70 73 66 62 45 40 40 35 28 30 14 338 322 329 330 329 329 345 342 342 340 338 321 317 5 16 27 27 31 33 37 33 30 20 16 7 10 9 9 8 1 357 351 348 341 337 331 324 326 326 326 327 339 2 2 359
96 96 94 88 72 57 45 56 60 63 57 47 27 28 22 17 8 360 350 352 342 334 327 318 326 334 334 333 323 319 286 353 60 48 26 25 23 32 33 23 23 11 3 3 4 5 5 4 356 351 341 334 331 326 325 323 318 319 318 343 354 351 346
101 87 87 94 88 83 81 77 78 69 58 43 22 24 20 14 4 357 355 357 356 349 351 332 326 340 334 336 329 323 329 9 70 62 37 25 32 24 9 13 18 15 357 350 347 10 11 6 355 342 339 327 325 322 321 320 317 314 318 343 353 345 341
109 109 98 77 89 109 107 100 90 88 82 57 29 29 21 16 9 4 2 1 359 2 7 1 357 9 8 2 14 17 30 48 42 45 54 27 13 8 17 27 10 6 352 339 7 36 37 4 335 325 321 318 308 318 311 315 315 309 10 0 1 348 339
100 104 112 119 103 96 97 101 109 102 91 78 63 47 30 26 19 7 7 5 5 4 11 1 5 20 12 8 11 5 10 9 7 6 14 15 9 13 347 355 20 61 29 347 345 2 31 40 321 301 311 309 294 257 264 287 292 299 352 357 337 324 314
120 116 119 100 94 101 105 105 102 98 92 93 79 55 27 47 28 16 12 12 7 8 8 7 8 7 1 359 358 355 1 1 358 1 13 22 29 27 22 351 344 358 24 7 341 338 338 335 323 319 316 255 288 308 287 261 270 306 357 323 323 321 319
134 142 127 101 111 111 103 99 97 108 114 99 78 59 56 59 43 19 20 13 10 8 10 11 10 1 349 338 335 350 348 355 357 13 12 10 11 20 18 9 356 339 342 355 343 332 329 326 321 318 322 326 326 278 313 313 1 20 335 327 330 329 323